#datint,netname,site,siteID,timestamp,IntT,BattV,AirT2,AirT,AirT_Avg,AirT_Max,AirT_Min,RH_Avg,RH_Max,RH_Min,EA_Avg,Td_Avg,Td_Max,Td_Min,WindS_Smp,WindS_Avg,WindD_Avg,WindD_SD,WindS_Max,ETo,ETr,SoilT4,SoilT8,SoilVWC8,SolarW_Avg,wetstate_Avg,wetT_Avg,Precip_accum,Precip_WPG,Precip_TB
15min,AgWx,beryljct,423,16DEC2019:00:00:00,22.8,12.75,20.3,19.6,19.4,20.6,18.8,94,95,93,0.343,18.0,19.5,17.2,3.683,3.9,326,7.4,5.0,-0.00004,-0.00005,34.5,37.1,21,0,.,.,8.28,0.00,0.00
15min,AgWx,beryljct,423,16DEC2019:00:15:00,22.1,12.74,21.5,21.1,20.9,21.5,19.6,92,95,90,0.354,18.9,19.7,18.2,4.034,4.4,343,6.9,7.1,-0.00003,-0.00003,34.5,37.1,21,0,.,.,8.28,0.00,0.00
15min,AgWx,beryljct,423,16DEC2019:00:30:00,22.0,12.73,20.5,20.3,21.0,21.5,20.3,91,91,90,0.338,18.7,19.3,17.8,3.924,4.2,345,6.6,5.2,-0.00003,-0.00003,34.5,37.1,21,0,.,.,8.28,0.00,0.00
15min,AgWx,beryljct,423,16DEC2019:00:45:00,21.5,12.71,20.8,20.1,19.9,20.6,19.4,91,93,90,0.344,17.8,18.9,17.1,2.959,3.6,335,9.2,4.9,-0.00004,-0.00004,34.5,37.1,21,0,.,.,8.28,0.00,0.00
15min,AgWx,beryljct,423,16DEC2019:01:00:00,21.0,12.71,19.5,18.7,19.9,20.8,18.7,92,93,91,0.322,18.0,19.0,16.7,3.354,2.9,333,15,4.0,-0.00005,-0.00006,34.4,37.1,21,0,.,.,8.28,0.00,0.00
15min,AgWx,beryljct,423,16DEC2019:01:15:00,20.4,12.7,20.9,20.5,19.7,20.8,18.9,92,94,91,0.346,17.8,18.9,16.9,3.157,3.5,300,8.1,4.4,-0.00004,-0.00005,34.4,37.1,21,0,.,.,8.28,0.00,0.00
15min,AgWx,beryljct,423,16DEC2019:01:30:00,19.9,12.69,22.0,20.1,20.4,20.9,19.6,90,91,87,0.333,17.8,18.5,16.5,3.244,3.3,306,14,4.1,-0.00004,-0.00004,34.4,37.1,21,0,.,.,8.28,0.00,0.00
15min,AgWx,beryljct,423,16DEC2019:01:45:00,19.4,12.68,18.0,17.4,19.3,21.4,17.4,89,91,87,0.296,16.6,19.0,14.6,3.31,3.2,332,5.0,3.8,-0.00004,-0.00004,34.4,37.0,21,0,.,.,8.28,0.00,0.00
15min,AgWx,beryljct,423,16DEC2019:02:00:00,18.6,12.67,17.7,17.6,16.8,17.9,15.6,91,93,88,0.306,14.6,16.1,13.1,3.442,2.7,330,6.2,3.5,-0.00004,-0.00005,34.4,37.0,21,0,.,.,8.28,0.00,0.00
15min,AgWx,beryljct,423,16DEC2019:02:15:00,18.4,12.66,19.7,19.2,17.9,19.2,16.6,91,92,90,0.322,15.7,16.8,14.1,2.784,2.7,324,7.1,3.6,-0.00005,-0.00005,34.4,37.0,21,0,.,.,8.28,0.00,0.00
15min,AgWx,beryljct,423,16DEC2019:02:30:00,18.9,12.65,21.4,20.9,20.0,21.0,19.1,89,90,88,0.340,17.3,18.1,16.4,2.105,2.7,327,6.9,4.2,-0.00004,-0.00005,34.3,37.0,21,0,.,.,8.28,0.00,0.00
15min,AgWx,beryljct,423,16DEC2019:02:45:00,19.8,12.64,21.1,21.1,21.0,21.6,20.6,88,89,86,0.336,18.0,18.4,17.7,2.631,2.6,354,14,4.7,-0.00005,-0.00005,34.4,37.0,21,0,.,.,8.28,0.00,0.00
15min,AgWx,beryljct,423,16DEC2019:03:00:00,20.5,12.64,21.1,20.9,21.1,21.5,20.9,88,88,86,0.339,18.0,18.2,17.6,0.811,2.0,26,6.8,3.9,-0.00006,-0.00007,34.3,37.0,21,0,.,.,8.27,0.00,0.00
15min,AgWx,beryljct,423,16DEC2019:03:15:00,20.9,12.63,20.8,20.6,20.7,21.0,20.6,89,90,88,0.341,18.0,18.4,17.9,3.091,1.4,4.1,29,3.4,-0.00007,-0.00010,34.3,37.0,21,0,.,.,8.27,0.00,0.00
15min,AgWx,beryljct,423,16DEC2019:03:30:00,21.3,12.63,21.7,21.5,20.8,21.5,20.4,90,90,89,0.352,18.3,18.8,17.9,3.376,3.2,323,10,5.2,-0.00004,-0.00004,34.3,37.0,21,0,.,.,8.27,0.00,0.00
15min,AgWx,beryljct,423,16DEC2019:03:45:00,21.3,12.63,20.7,20.2,20.5,21.4,19.8,90,90,89,0.334,17.9,18.6,17.3,2.039,2.6,320,9.9,3.7,-0.00005,-0.00006,34.3,37.0,21,0,.,.,8.28,0.00,0.00
15min,AgWx,beryljct,423,16DEC2019:04:00:00,20.8,12.63,21.3,21.1,20.3,21.2,19.6,90,92,89,0.347,17.9,18.7,16.8,1.359,1.3,320,0.0,2.1,-0.00008,-0.00010,34.3,36.9,21,0,.,.,8.28,0.00,0.00
15min,AgWx,beryljct,423,16DEC2019:04:15:00,20.3,12.62,20.7,19.8,19.9,21.1,19.5,90,91,88,0.334,17.5,18.4,16.9,0,0.4,320,0.2,1.5,-0.00010,-0.00015,34.3,36.9,21,0,.,.,8.28,0.00,0.00
15min,AgWx,beryljct,423,16DEC2019:04:30:00,19.9,12.61,19.3,18.8,19.5,20.6,18.6,89,91,87,0.319,16.8,18.0,15.8,0,0.1,33,0.5,1.4,-0.00011,-0.00017,34.2,36.9,21,0,.,.,8.28,0.00,0.00
15min,AgWx,beryljct,423,16DEC2019:04:45:00,19.5,12.61,19.6,19.1,18.7,19.1,18.1,90,91,89,0.323,16.3,16.7,15.5,0,0.0,33,0.0,0.4,-0.00011,-0.00018,34.2,36.9,21,0,.,.,8.28,0.00,0.00
15min,AgWx,beryljct,423,16DEC2019:05:00:00,19.3,12.61,20.3,20.0,19.8,20.2,19.0,88,91,87,0.323,16.9,17.1,16.7,0.329,0.0,33,0.0,0.3,-0.00012,-0.00019,34.2,36.9,21,0,.,.,8.28,0.01,0.00
15min,AgWx,beryljct,423,16DEC2019:05:15:00,19.3,12.6,18.8,17.8,18.3,20.1,17.3,88,90,87,0.301,15.4,16.8,14.3,3.595,3.0,354,21,4.5,-0.00004,-0.00004,34.2,36.9,21,0,.,.,8.28,0.00,0.00
15min,AgWx,beryljct,423,16DEC2019:05:30:00,18.7,12.61,14.7,15.1,16.5,18.1,15.1,90,91,89,0.271,13.9,15.7,12.7,4.209,4.7,344,9.7,5.9,-0.00002,-0.00002,34.2,36.9,21,0,.,.,8.28,0.00,0.00
15min,AgWx,beryljct,423,16DEC2019:05:45:00,17.6,12.6,12.3,12.7,13.9,15.1,12.7,90,91,90,0.243,11.5,12.7,10.3,2.718,4.2,325,6.0,5.3,-0.00002,-0.00002,34.2,36.9,21,0,.,.,8.28,0.00,0.00
15min,AgWx,beryljct,423,16DEC2019:06:00:00,16.2,12.6,12.1,13.5,13.6,14.6,12.4,92,93,90,0.255,11.5,12.8,10.0,5.152,3.8,316,2.1,5.2,-0.00003,-0.00003,34.2,36.8,21,0,.,.,8.28,0.00,0.00
15min,AgWx,beryljct,423,16DEC2019:06:15:00,15.1,12.59,13.9,12.4,12.2,13.3,11.6,90,91,89,0.240,9.9,11.0,9.1,2.499,4.2,328,7.9,5.4,-0.00002,-0.00002,34.1,36.8,21,0,.,.,8.28,0.00,0.00
15min,AgWx,beryljct,423,16DEC2019:06:30:00,14.3,12.59,14.3,12.1,12.5,13.2,11.5,90,91,89,0.240,10.2,11.1,8.9,2.959,3.0,0.8,49,4.3,-0.00003,-0.00004,34.1,36.8,21,0,.,.,8.28,0.00,0.00
15min,AgWx,beryljct,423,16DEC2019:06:45:00,13.6,12.59,11.3,10.9,11.4,12.4,10.7,92,93,91,0.231,9.5,10.7,8.6,1.535,0.7,99,7.3,3.1,-0.00007,-0.00010,34.1,36.8,21,0,.,.,8.28,0.00,0.00
15min,AgWx,beryljct,423,16DEC2019:07:00:00,12.6,12.58,10.8,11.1,11.0,11.7,10.6,93,94,93,0.235,9.4,10.3,9.0,1.885,0.8,45,34,2.6,0.00001,0.00001,34.1,36.8,21,0,.,.,8.28,0.00,0.00
15min,AgWx,beryljct,423,16DEC2019:07:15:00,12.0,12.59,11.7,11.0,10.4,11.0,10.1,93,93,92,0.233,8.7,9.4,8.3,2.696,1.7,347,10,2.8,0.00001,0.00002,34.1,36.8,21,0,.,.,8.28,0.00,0.00
15min,AgWx,beryljct,423,16DEC2019:07:30:00,11.6,12.59,8.6,8.4,9.6,11.0,8.3,91,93,89,0.200,7.4,9.4,5.6,3.749,3.2,328,2.2,3.8,0.00003,0.00005,34.0,36.8,21,1,.,.,8.28,0.00,0.00
15min,AgWx,beryljct,423,16DEC2019:07:45:00,11.0,12.59,9.6,9.9,8.6,10.0,7.2,90,91,89,0.216,6.2,7.9,4.7,1.447,2.7,307,10,3.6,0.00003,0.00005,34.0,36.8,21,4,.,.,8.28,0.00,0.00
15min,AgWx,beryljct,423,16DEC2019:08:00:00,10.5,12.8,7.6,7.8,9.4,10.3,7.8,89,90,87,0.188,6.8,7.9,4.6,3.683,3.3,321,6.9,5.2,0.00007,0.00010,34.0,36.7,21,21,.,.,8.28,0.00,0.00
15min,AgWx,beryljct,423,16DEC2019:08:15:00,10.7,13.33,11.1,9.8,8.4,9.8,7.5,88,90,87,0.210,5.7,7.2,4.4,4.494,4.7,321,5.8,6.3,0.00014,0.00017,34.0,36.7,21,61,.,.,8.28,0.00,0.00
15min,AgWx,beryljct,423,16DEC2019:08:30:00,11.7,14.92,13.5,13.0,11.0,13.0,9.9,88,89,88,0.242,8.2,10.2,7.0,4.626,3.8,319,6.1,4.6,0.00019,0.00023,34.0,36.7,21,96,.,.,8.28,0.00,0.00
15min,AgWx,beryljct,423,16DEC2019:08:45:00,13.9,14.89,17.5,16.8,15.4,16.8,13.0,86,88,85,0.278,12.0,13.3,10.2,4.056,4.5,322,4.9,5.6,0.00029,0.00035,34.0,36.7,21,133,.,.,8.27,0.00,0.00
15min,AgWx,beryljct,423,16DEC2019:09:00:00,16.5,14.9,19.1,18.6,17.8,18.6,16.9,83,86,82,0.287,13.6,14.1,13.2,3.223,3.8,349,7.6,4.9,0.00040,0.00047,34.0,36.7,21,171,.,.,8.27,0.00,0.00
15min,AgWx,beryljct,423,16DEC2019:09:15:00,19.3,14.91,19.9,19.7,19.3,19.8,18.6,82,82,81,0.300,14.6,15.2,14.0,3.201,3.5,339,4.7,4.7,0.00051,0.00059,33.9,36.7,21,209,.,.,8.27,0.00,0.00
15min,AgWx,beryljct,423,16DEC2019:09:30:00,21.8,14.91,20.3,19.8,20.0,20.7,19.1,81,82,79,0.303,15.0,15.8,14.4,1.293,1.7,42,53,4.7,0.00063,0.00070,33.9,36.7,21,249,.,.,8.27,0.00,0.00
15min,AgWx,beryljct,423,16DEC2019:09:45:00,24.2,14.85,22.0,21.6,21.0,21.6,19.9,80,83,78,0.311,15.9,16.4,15.3,3.025,1.4,107,52,3.8,0.00076,0.00083,33.9,36.7,21,287,.,.,8.27,0.00,0.00
15min,AgWx,beryljct,423,16DEC2019:10:00:00,26.5,14.84,22.2,22.2,22.1,22.4,21.7,75,78,74,0.309,15.5,16.0,14.9,1.6,2.2,30,46,4.7,0.00087,0.00097,33.9,36.7,21,323,.,.,8.27,0.00,0.00
15min,AgWx,beryljct,423,16DEC2019:10:15:00,28.4,14.85,23.4,23.2,22.4,23.2,22.1,77,78,76,0.321,16.3,16.6,15.8,5.7,2.8,10,28,6.4,0.00095,0.00106,33.9,36.7,21,356,.,.,8.27,0.00,0.00
15min,AgWx,beryljct,423,16DEC2019:10:30:00,29.6,14.52,24.1,24.1,23.6,24.1,23.1,74,75,72,0.327,16.5,17.1,16.0,6.182,5.3,359,16,7.6,0.00102,0.00119,33.9,36.6,21,386,.,.,8.27,0.00,0.00
15min,AgWx,beryljct,423,16DEC2019:10:45:00,30.1,14.43,25.9,24.8,24.3,24.8,23.9,73,74,72,0.325,16.8,17.4,16.4,5.437,6.3,3.1,12,8.3,0.00110,0.00130,33.8,36.6,21,415,.,.,8.27,0.00,0.00
15min,AgWx,beryljct,423,16DEC2019:11:00:00,30.4,14.39,25.5,25.4,25.1,25.5,24.9,71,73,70,0.328,17.1,17.7,16.6,7.98,7.4,13,11,9.9,0.00117,0.00140,33.8,36.6,21,443,.,.,8.27,0.00,0.00
15min,AgWx,beryljct,423,16DEC2019:11:15:00,30.7,14.39,27.3,26.6,26.0,26.6,25.3,70,71,68,0.342,17.4,18.1,16.8,6.248,7.8,21,10,11.4,0.00129,0.00154,33.8,36.6,21,483,.,.,8.27,0.00,0.00
15min,AgWx,beryljct,423,16DEC2019:11:30:00,31.5,14.35,28.7,28.2,27.9,28.5,26.7,65,71,62,0.325,17.5,19.2,16.6,10.33,9.7,41,14,13.2,0.00162,0.00196,33.8,36.6,21,585,.,.,8.27,0.00,0.00
15min,AgWx,beryljct,423,16DEC2019:11:45:00,32.2,14.36,27.8,27.4,28.1,28.9,27.1,60,65,59,0.300,16.1,18.5,14.8,8.83,10.5,38,12,14.7,0.00126,0.00163,33.8,36.6,21,392,.,.,8.27,0.00,0.00
15min,AgWx,beryljct,423,16DEC2019:12:00:00,31.8,14.36,27.5,27.6,27.7,28.2,27.3,59,60,56,0.300,15.2,16.2,13.8,11.84,11.1,42,13,14.8,0.00113,0.00151,33.8,36.6,21,323,.,.,8.27,0.00,0.00
15min,AgWx,beryljct,423,16DEC2019:12:15:00,31.3,14.33,28.1,28.2,27.9,28.7,27.3,59,61,58,0.305,15.6,17.0,14.5,13.9,11.0,36,7.3,15.6,0.00118,0.00156,33.8,36.5,21,354,.,.,8.27,0.00,0.00
15min,AgWx,beryljct,423,16DEC2019:12:30:00,31.3,14.34,28.1,28.0,28.3,28.9,27.7,57,59,54,0.285,15.2,16.6,13.6,7.475,12.8,32,12,17.2,0.00151,0.00196,33.8,36.5,21,516,.,.,8.27,0.00,0.00
15min,AgWx,beryljct,423,16DEC2019:12:45:00,31.5,14.34,29.8,29.1,28.7,29.3,27.8,55,58,53,0.297,14.5,16.2,13.2,11.33,11.5,38,14,16.7,0.00157,0.00202,33.8,36.5,21,518,.,.,8.27,0.00,0.00
15min,AgWx,beryljct,423,16DEC2019:13:00:00,31.9,14.28,28.7,29.2,29.1,29.8,28.6,55,57,53,0.297,14.8,16.5,13.8,9.21,11.4,33,12,16.6,0.00166,0.00213,33.8,36.5,21,547,.,.,8.27,0.00,0.00
15min,AgWx,beryljct,423,16DEC2019:13:15:00,32.3,14.37,30.0,29.7,29.2,29.8,28.6,54,56,52,0.300,14.7,15.8,13.4,11.79,10.2,41,9.0,15.2,0.00161,0.00206,33.8,36.5,21,519,.,.,8.26,0.00,0.00
15min,AgWx,beryljct,423,16DEC2019:13:30:00,32.6,14.27,30.5,29.6,29.6,30.0,29.3,52,54,50,0.284,14.1,15.1,12.8,9.21,10.7,38,10,15.5,0.00174,0.00222,33.8,36.5,21,553,.,.,8.26,0.00,0.00
15min,AgWx,beryljct,423,16DEC2019:13:45:00,32.7,14.26,30.2,30.5,29.8,30.5,29.3,52,53,50,0.304,14.2,15.4,12.9,9.29,9.2,39,14,14.3,0.00149,0.00193,33.7,36.5,21,450,.,.,8.26,0.00,0.00
15min,AgWx,beryljct,423,16DEC2019:14:00:00,32.7,14.27,30.2,30.4,29.9,30.7,29.2,50,53,47,0.280,13.4,15.3,12.2,14.14,10.1,38,15,15.2,0.00145,0.00192,33.7,36.5,21,434,.,.,8.26,0.00,0.00
15min,AgWx,beryljct,423,16DEC2019:14:15:00,32.7,14.26,30.3,30.3,29.9,30.3,29.3,48,50,46,0.275,12.8,13.6,11.2,15.26,11.2,37,11,15.6,0.00144,0.00195,33.7,36.4,21,418,.,.,8.26,0.00,0.00
15min,AgWx,beryljct,423,16DEC2019:14:30:00,32.8,14.28,30.9,29.7,30.0,30.5,29.4,46,48,43,0.248,11.8,13.2,9.5,8.99,10.8,32,13,15.7,0.00144,0.00196,33.7,36.4,21,408,.,.,8.26,0.00,0.00
15min,AgWx,beryljct,423,16DEC2019:14:45:00,32.8,14.26,30.2,30.2,30.2,30.7,29.8,45,47,43,0.249,11.2,12.5,10.1,13.09,12.2,38,10,16.3,0.00141,0.00198,33.7,36.4,21,385,.,.,8.26,0.00,0.00
15min,AgWx,beryljct,423,16DEC2019:15:00:00,32.9,14.27,30.1,30.2,30.3,30.9,29.9,44,46,40,0.230,10.8,12.4,9.0,14.97,12.4,41,10,16.5,0.00136,0.00194,33.7,36.4,21,354,.,.,8.26,0.00,0.00
15min,AgWx,beryljct,423,16DEC2019:15:15:00,32.9,14.27,30.5,30.2,30.2,30.5,30.0,41,43,39,0.232,9.5,10.5,8.3,10.74,12.0,38,11,15.9,0.00130,0.00189,33.7,36.4,21,321,.,.,8.25,0.00,0.00
15min,AgWx,beryljct,423,16DEC2019:15:30:00,32.9,14.27,30.1,30.2,30.2,30.6,30.0,40,43,39,0.226,9.0,10.5,7.9,12.41,12.1,42,8.3,15.3,0.00122,0.00181,33.7,36.4,21,286,.,.,8.25,0.00,0.00
15min,AgWx,beryljct,423,16DEC2019:15:45:00,32.9,14.26,30.7,30.1,30.3,30.8,30.1,41,44,39,0.230,9.6,11.4,8.3,10.26,11.4,41,8.9,15.4,0.00110,0.00166,33.7,36.4,21,249,.,.,8.25,0.00,0.00
15min,AgWx,beryljct,423,16DEC2019:16:00:00,32.9,14.29,30.0,29.9,30.0,30.3,29.8,41,44,39,0.236,9.3,10.8,8.1,14.97,12.0,35,9.2,16.0,0.00100,0.00157,33.7,36.3,21,211,.,.,8.25,0.00,0.00
15min,AgWx,beryljct,423,16DEC2019:16:15:00,32.7,14.28,29.8,29.6,29.8,30.0,29.6,42,45,40,0.233,9.6,10.8,8.3,10.87,11.5,36,6.9,15.4,0.00088,0.00142,33.7,36.4,21,172,.,.,8.25,0.00,0.00
15min,AgWx,beryljct,423,16DEC2019:16:30:00,32.4,14.31,29.3,29.2,29.4,29.6,29.2,42,45,40,0.228,9.2,10.5,8.0,10.39,11.2,38,7.0,16.2,0.00034,0.00038,33.7,36.3,21,134,.,.,8.25,0.00,0.00
15min,AgWx,beryljct,423,16DEC2019:16:45:00,31.8,14.3,28.5,28.4,28.8,29.2,28.4,43,45,41,0.237,9.2,9.7,8.3,11.27,11.3,34,7.3,16.4,0.00030,0.00034,33.7,36.3,21,97,.,.,8.25,0.00,0.00
15min,AgWx,beryljct,423,16DEC2019:17:00:00,30.8,13.32,27.4,27.2,27.9,28.3,27.2,46,48,45,0.242,9.8,10.2,9.4,8.88,10.2,30,7.0,13.5,0.00023,0.00027,33.7,36.3,21,41,.,.,8.25,0.00,0.00
15min,AgWx,beryljct,423,16DEC2019:17:15:00,29.1,13.19,26.1,25.9,26.7,27.2,25.9,50,52,48,0.249,10.3,10.8,10.0,6.094,8.0,39,7.1,12.1,0.00016,0.00019,33.7,36.3,21,11,.,.,8.25,0.00,0.00
15min,AgWx,beryljct,423,16DEC2019:17:30:00,27.5,13.12,25.8,25.6,25.6,25.9,25.3,53,54,52,0.249,10.9,11.2,10.7,7.673,7.0,47,8.7,9.8,0.00011,0.00014,33.7,36.3,21,5,.,.,8.25,0.00,0.00
15min,AgWx,beryljct,423,16DEC2019:17:45:00,26.0,13.07,24.5,24.2,24.7,25.6,24.1,55,57,53,0.251,11.0,11.1,10.7,5.985,6.6,46,7.5,9.2,0.00009,0.00012,33.7,36.3,21,0,.,.,8.25,0.00,0.00
15min,AgWx,beryljct,423,16DEC2019:18:00:00,24.8,13.05,22.8,22.8,23.5,24.2,22.8,59,61,57,0.255,11.2,11.5,10.9,4.341,4.9,38,4.7,6.4,0.00004,0.00007,33.7,36.3,21,0,.,.,8.25,0.00,0.00
15min,AgWx,beryljct,423,16DEC2019:18:15:00,23.7,13.03,22.4,22.2,22.6,22.8,22.2,62,63,61,0.256,11.5,11.7,11.4,2.981,4.6,41,4.9,6.4,0.00002,0.00004,33.7,36.3,21,0,.,.,8.25,0.00,0.00
15min,AgWx,beryljct,423,16DEC2019:18:30:00,22.5,13.02,22.1,21.7,21.9,22.2,21.6,64,67,63,0.266,11.6,12.3,11.2,4.428,2.6,48,8.1,5.0,-0.00004,-0.00004,33.7,36.3,21,0,.,.,8.25,0.00,0.00
15min,AgWx,beryljct,423,16DEC2019:18:45:00,21.6,13,22.1,21.8,21.7,22.0,21.2,67,68,67,0.274,12.6,13.0,12.0,5.568,4.2,48,14,6.1,-0.00000,0.00001,33.7,36.3,21,0,.,.,8.25,0.00,0.00
15min,AgWx,beryljct,423,16DEC2019:19:00:00,21.2,12.99,21.7,21.4,21.2,21.8,20.8,70,71,68,0.273,13.0,13.4,12.8,5.13,5.0,35,6.0,7.7,0.00001,0.00002,33.7,36.3,21,0,.,.,8.25,0.00,0.00
15min,AgWx,beryljct,423,16DEC2019:19:15:00,20.9,12.98,22.4,21.5,21.6,22.1,21.3,69,69,68,0.271,12.9,13.1,12.7,4.209,5.1,48,7.6,7.0,0.00002,0.00003,33.7,36.3,21,0,.,.,8.25,0.00,0.00
15min,AgWx,beryljct,423,16DEC2019:19:30:00,20.6,12.95,20.4,20.0,20.9,21.6,20.0,69,71,68,0.263,12.4,12.8,11.9,4.275,4.0,41,4.9,5.1,-0.00001,0.00000,33.7,36.3,21,0,.,.,8.25,0.00,0.00
15min,AgWx,beryljct,423,16DEC2019:19:45:00,20.2,12.93,21.3,21.1,20.7,21.7,19.6,70,72,69,0.270,12.6,13.1,11.8,5.217,5.8,49,7.9,9.4,0.00002,0.00003,33.7,36.3,21,0,.,.,8.25,0.00,0.00
15min,AgWx,beryljct,423,16DEC2019:20:00:00,20.0,12.94,20.8,20.4,20.5,21.1,20.1,70,71,69,0.264,12.3,12.7,12.1,0.614,2.9,34,9.8,6.1,-0.00004,-0.00004,33.7,36.3,21,0,.,.,8.26,0.00,0.00
15min,AgWx,beryljct,423,16DEC2019:20:15:00,19.5,12.92,20.6,20.7,20.3,20.7,19.8,70,71,69,0.262,12.0,12.4,11.7,3.836,1.5,273,48,3.9,-0.00009,-0.00012,33.7,36.2,21,0,.,.,8.26,0.00,0.00
15min,AgWx,beryljct,423,16DEC2019:20:30:00,19.1,12.91,20.5,20.2,20.2,20.9,19.5,69,71,68,0.256,11.8,12.4,11.1,1.578,2.0,321,71,5.5,-0.00007,-0.00008,33.7,36.2,21,0,.,.,8.26,0.00,0.00
15min,AgWx,beryljct,423,16DEC2019:20:45:00,18.7,12.9,18.5,18.4,19.8,20.2,18.4,68,69,67,0.238,11.0,11.5,9.8,3.508,2.5,348,12,4.1,-0.00005,-0.00005,33.7,36.2,21,0,.,.,8.25,0.00,0.00
15min,AgWx,beryljct,423,16DEC2019:21:00:00,18.2,12.9,16.9,17.1,18.2,19.2,17.1,70,72,69,0.235,10.1,10.7,9.6,1.907,3.1,49,34,4.7,-0.00003,-0.00003,33.7,36.2,21,0,.,.,8.26,0.01,0.00
15min,AgWx,beryljct,423,16DEC2019:21:15:00,17.7,12.89,16.1,16.8,18.4,20.1,16.8,70,74,67,0.223,10.3,11.2,8.4,3.31,2.4,28,36,4.1,-0.00005,-0.00006,33.7,36.2,21,0,.,.,8.26,0.00,0.00
15min,AgWx,beryljct,423,16DEC2019:21:30:00,17.1,12.88,15.7,14.6,15.2,16.8,14.2,75,78,69,0.229,8.7,9.5,8.1,4.538,3.8,332,3.8,4.8,-0.00002,-0.00002,33.7,36.2,21,0,.,.,8.26,0.00,0.00
15min,AgWx,beryljct,423,16DEC2019:21:45:00,16.2,12.87,15.5,14.7,14.0,14.8,13.4,78,79,77,0.234,8.5,9.5,8.0,3.771,3.3,326,13,4.6,-0.00004,-0.00004,33.6,36.2,21,0,.,.,8.26,0.00,0.00
15min,AgWx,beryljct,423,16DEC2019:22:00:00,15.7,12.86,18.0,16.7,16.1,17.3,14.7,77,79,73,0.238,10.0,10.6,9.4,3.244,4.3,296,6.0,5.3,-0.00002,-0.00002,33.6,36.2,21,0,.,.,8.27,0.00,0.00
15min,AgWx,beryljct,423,16DEC2019:22:15:00,15.5,12.86,19.1,18.4,17.2,18.4,16.4,73,74,70,0.242,9.9,10.3,9.1,4.867,3.0,317,6.0,5.0,-0.00004,-0.00004,33.6,36.2,21,0,.,.,8.26,0.00,0.00
15min,AgWx,beryljct,423,16DEC2019:22:30:00,15.7,12.84,15.0,15.8,17.8,18.7,15.8,70,72,68,0.224,9.6,10.3,8.5,2.85,4.4,314,14,6.1,-0.00000,0.00001,33.6,36.2,21,0,.,.,8.26,0.00,0.00
15min,AgWx,beryljct,423,16DEC2019:22:45:00,15.4,12.83,16.2,15.6,14.5,15.7,13.7,77,79,73,0.236,8.6,9.7,8.1,2.74,3.0,323,4.4,4.1,-0.00004,-0.00004,33.6,36.2,21,0,.,.,8.26,0.00,0.00
15min,AgWx,beryljct,423,16DEC2019:23:00:00,14.9,12.82,17.0,16.6,15.9,17.0,15.0,75,77,73,0.234,9.3,10.3,8.3,4.516,2.9,320,3.5,4.8,-0.00004,-0.00004,33.6,36.2,21,0,.,.,8.26,0.00,0.00
15min,AgWx,beryljct,423,16DEC2019:23:15:00,14.7,12.81,15.3,15.1,15.9,16.6,15.1,75,77,73,0.229,9.4,10.1,8.6,3.266,3.3,334,11,4.8,-0.00003,-0.00003,33.5,36.2,21,0,.,.,8.26,0.00,0.00
15min,AgWx,beryljct,423,16DEC2019:23:30:00,14.4,12.81,11.9,12.0,13.5,15.0,12.0,78,80,76,0.209,8.1,8.9,7.0,1.447,3.0,336,3.2,3.8,-0.00004,-0.00005,33.5,36.1,21,0,.,.,8.27,0.00,0.00
15min,AgWx,bigpiney,439,16DEC2019:00:00:00,-5.4,12.4,0.1,-0.0,0.3,1.0,-1.4,83,84,82,0.123,-3.7,-3.0,-5.6,2.959,1.8,22,22,4.3,-0.00005,-0.00006,32.0,33.4,51,0,1,0.0,5.69,0.00,0.00
15min,AgWx,bigpiney,439,16DEC2019:00:15:00,-5.1,12.38,-3.1,-3.3,-1.9,-0.0,-3.3,81,82,80,0.105,-6.3,-4.3,-7.7,0,0.7,350,7.9,3.5,-0.00007,-0.00010,32.0,33.4,51,0,1,0.0,5.69,0.00,0.00
15min,AgWx,bigpiney,439,16DEC2019:00:30:00,-5.0,12.37,0.1,-0.5,-2.4,-0.3,-4.3,83,84,81,0.122,-6.5,-4.1,-8.7,1.732,2.9,21,9.8,5.5,-0.00003,-0.00003,32.0,33.4,51,0,1,0.0,5.69,0.00,0.00
15min,AgWx,bigpiney,439,16DEC2019:00:45:00,-5.0,12.37,-1.0,-2.5,-3.1,-0.4,-6.6,81,84,78,0.113,-7.5,-4.6,-11.6,4.647,3.1,208,44,7.2,-0.00003,-0.00003,32.0,33.3,51,0,1,0.0,5.69,0.00,0.00
15min,AgWx,bigpiney,439,16DEC2019:01:00:00,-5.4,12.36,-4.3,-5.6,-2.6,-0.5,-5.7,81,84,79,0.092,-6.9,-4.4,-10.6,4.867,3.0,196,18,5.5,-0.00003,-0.00003,32.0,33.3,51,0,1,0.0,5.69,0.00,0.00
15min,AgWx,bigpiney,439,16DEC2019:01:15:00,-5.6,12.35,2.1,1.9,0.9,2.0,-5.7,83,87,79,0.135,-3.1,-1.8,-10.5,4.275,5.3,262,24,7.1,-0.00001,-0.00001,32.0,33.3,51,0,1,0.0,5.69,0.00,0.00
15min,AgWx,bigpiney,439,16DEC2019:01:30:00,-5.5,12.35,-4.0,-4.2,-1.5,1.9,-4.6,80,82,76,0.100,-6.2,-2.4,-9.3,2.872,3.4,327,25,4.8,-0.00002,-0.00002,32.0,33.3,51,0,1,0.0,5.69,0.00,0.00
15min,AgWx,bigpiney,439,16DEC2019:01:45:00,-5.6,12.34,-4.8,-5.5,-5.9,-3.0,-7.8,81,83,77,0.097,-10.2,-6.9,-13.0,0,1.1,37,36,3.3,-0.00005,-0.00006,32.0,33.3,51,0,1,0.0,5.69,0.00,0.00
15min,AgWx,bigpiney,439,16DEC2019:02:00:00,-6.0,12.34,-6.6,-7.5,-6.3,-5.2,-7.7,82,83,81,0.087,-10.3,-9.0,-11.7,0,0.0,30,0.0,1.3,-0.00008,-0.00012,32.0,33.3,51,0,1,0.0,5.69,0.00,0.00
15min,AgWx,bigpiney,439,16DEC2019:02:15:00,-6.5,12.33,-7.7,-8.2,-7.7,-7.4,-8.2,83,83,83,0.085,-11.5,-11.2,-12.1,0.438,0.5,340,14,2.0,-0.00006,-0.00009,32.0,33.3,51,0,1,0.0,5.69,0.00,0.00
15min,AgWx,bigpiney,439,16DEC2019:02:30:00,-7.1,12.32,-12.1,-12.9,-11.0,-8.2,-13.2,82,83,80,0.066,-15.1,-12.1,-17.4,2.718,2.5,331,16,4.5,-0.00002,-0.00003,32.0,33.3,51,0,1,0.0,5.69,0.00,0.00
15min,AgWx,bigpiney,439,16DEC2019:02:45:00,-7.9,12.32,-11.4,-12.4,-12.9,-12.2,-14.3,83,84,82,0.070,-16.5,-15.6,-18.3,2.696,3.2,315,26,4.5,-0.00002,-0.00002,32.0,33.3,51,0,1,0.0,5.69,0.00,0.00
15min,AgWx,bigpiney,439,16DEC2019:03:00:00,-8.7,12.32,-11.1,-12.5,-12.7,-12.0,-13.2,84,85,83,0.069,-16.3,-15.5,-17.0,3.661,2.4,302,50,5.3,-0.00002,-0.00003,32.0,33.3,51,0,1,0.0,5.69,0.00,0.00
15min,AgWx,bigpiney,439,16DEC2019:03:15:00,-9.5,12.32,-11.1,-11.1,-11.5,-10.4,-12.4,84,85,83,0.074,-15.1,-13.8,-16.0,0.504,3.0,290,16,4.5,-0.00002,-0.00002,32.0,33.3,51,0,1,0.0,5.69,0.00,0.00
15min,AgWx,bigpiney,439,16DEC2019:03:30:00,-10.2,12.31,-8.8,-9.9,-12.0,-9.9,-13.6,82,85,80,0.079,-15.9,-13.3,-18.0,0,1.5,258,10,4.4,-0.00003,-0.00004,32.0,33.3,51,0,1,0.0,5.69,0.00,0.00
15min,AgWx,bigpiney,439,16DEC2019:03:45:00,-10.8,12.31,-11.5,-11.1,-11.3,-8.8,-14.0,83,86,79,0.073,-15.1,-12.0,-18.3,8.53,4.4,204,9.3,8.6,-0.00001,-0.00001,32.0,33.3,51,0,1,0.0,5.69,0.00,0.00
15min,AgWx,bigpiney,439,16DEC2019:04:00:00,-11.2,12.3,-9.0,-13.7,-14.7,-11.3,-16.4,80,82,79,0.064,-19.2,-15.4,-21.0,4.187,5.9,227,17,8.6,-0.00000,-0.00000,32.0,33.3,51,0,1,0.0,5.69,0.00,0.00
15min,AgWx,bigpiney,439,16DEC2019:04:15:00,-11.5,12.3,-11.2,-11.7,-11.8,-10.1,-13.4,82,85,81,0.070,-15.7,-13.5,-17.7,4.691,4.6,240,11,7.4,-0.00001,-0.00001,32.0,33.3,51,0,1,0.0,5.69,0.00,0.00
15min,AgWx,bigpiney,439,16DEC2019:04:30:00,-11.5,12.29,-11.8,-11.9,-10.0,-4.5,-12.6,82,87,79,0.068,-14.1,-7.5,-17.3,6.072,6.0,227,3.2,7.2,-0.00000,-0.00000,32.0,33.3,51,0,1,0.0,5.69,0.00,0.00
15min,AgWx,bigpiney,439,16DEC2019:04:45:00,-11.5,12.29,-9.0,-11.1,-12.0,-10.8,-12.9,81,82,80,0.072,-16.2,-14.8,-17.5,5.064,6.2,237,11,7.2,-0.00000,-0.00000,32.0,33.3,51,0,1,0.0,5.69,0.00,0.00
15min,AgWx,bigpiney,439,16DEC2019:05:00:00,-11.4,12.29,-8.0,-7.0,-7.7,-5.2,-10.9,83,85,80,0.089,-11.5,-8.8,-15.0,3.836,5.1,249,5.8,6.8,-0.00001,-0.00001,32.0,33.3,51,0,1,0.0,5.69,0.00,0.00
15min,AgWx,bigpiney,439,16DEC2019:05:15:00,-11.3,12.29,-12.5,-13.1,-11.1,-7.0,-14.0,80,86,77,0.063,-15.6,-10.1,-19.0,5.415,5.5,239,9.8,7.4,-0.00000,-0.00000,32.0,33.3,51,0,1,0.0,5.69,0.00,0.00
15min,AgWx,bigpiney,439,16DEC2019:05:30:00,-11.4,12.28,-14.5,-14.5,-12.0,-7.7,-15.2,81,85,78,0.060,-16.3,-11.1,-20.2,3.244,5.3,242,8.9,7.3,-0.00001,-0.00000,32.0,33.3,51,0,1,0.0,5.69,0.00,0.00
15min,AgWx,bigpiney,439,16DEC2019:05:45:00,-11.6,12.28,-10.7,-11.0,-11.6,-7.2,-14.8,82,85,79,0.072,-15.6,-10.5,-19.4,5.853,6.1,233,7.4,8.6,-0.00000,-0.00000,32.0,33.3,51,0,1,0.0,5.69,0.00,0.00
15min,AgWx,bigpiney,439,16DEC2019:06:00:00,-11.6,12.28,-9.1,-9.5,-11.9,-8.9,-13.1,81,84,80,0.079,-16.2,-12.5,-17.6,3.88,5.0,241,8.8,6.1,-0.00001,-0.00001,32.0,33.3,51,0,1,0.0,5.69,0.00,0.00
15min,AgWx,bigpiney,439,16DEC2019:06:15:00,-11.4,12.28,-10.7,-12.1,-11.0,-9.0,-13.3,81,83,78,0.068,-15.2,-12.9,-18.1,0.855,2.0,304,63,4.4,-0.00003,-0.00003,32.0,33.3,51,0,1,0.0,5.69,0.00,0.00
15min,AgWx,bigpiney,439,16DEC2019:06:30:00,-11.3,12.28,-11.7,-13.2,-12.1,-10.2,-14.4,81,82,78,0.064,-16.4,-14.1,-19.2,2.389,2.0,303,68,4.6,-0.00003,-0.00003,32.0,33.3,51,0,1,0.0,5.69,0.00,0.00
15min,AgWx,bigpiney,439,16DEC2019:06:45:00,-11.4,12.28,-9.1,-10.4,-10.3,-7.4,-13.1,82,84,80,0.075,-14.3,-11.0,-17.3,1.776,3.3,259,16,5.2,-0.00002,-0.00002,31.9,33.3,51,0,1,0.0,5.69,0.00,0.00
15min,AgWx,bigpiney,439,16DEC2019:07:00:00,-11.6,12.28,-11.3,-11.5,-11.4,-8.8,-13.6,81,84,78,0.071,-15.6,-12.3,-18.4,6.818,5.1,225,11,6.9,-0.00001,-0.00001,31.9,33.3,51,0,1,0.0,5.69,0.00,0.00
15min,AgWx,bigpiney,439,16DEC2019:07:15:00,-11.7,12.28,-13.0,-13.7,-10.6,-8.4,-13.7,81,84,78,0.061,-14.8,-12.0,-18.6,5.722,5.2,225,12,8.4,-0.00001,-0.00001,31.9,33.3,51,0,1,0.0,5.69,0.00,0.00
15min,AgWx,bigpiney,439,16DEC2019:07:30:00,-11.7,12.28,-12.6,-12.9,-12.7,-11.9,-13.7,80,81,78,0.065,-17.0,-16.0,-18.6,7.782,6.6,211,6.3,8.6,-0.00000,0.00000,31.9,33.3,51,0,1,0.0,5.69,0.00,0.00
15min,AgWx,bigpiney,439,16DEC2019:07:45:00,-11.7,12.35,-12.4,-13.2,-13.4,-12.8,-14.2,80,81,79,0.064,-17.8,-16.9,-18.8,6.533,6.9,208,4.5,8.5,0.00000,0.00000,31.9,33.3,51,4,1,0.0,5.69,0.00,0.00
15min,AgWx,bigpiney,439,16DEC2019:08:00:00,-11.6,14.98,-11.6,-11.5,-13.3,-9.4,-15.6,80,85,78,0.071,-17.6,-12.7,-20.4,5.305,5.6,235,35,7.5,-0.00002,0.00000,31.9,33.3,51,25,1,0.0,5.69,0.00,0.00